GW2867 Weather Reports


time (UTC)temp
C
wind
direction
speed
KPH
gust
KPH
rain 1hr
cm
rain 24hr
cm
rain mn
cm
humidity
%
barometer
mb
20260504160204 18 284 6.4 14.5 0.00 0.00 0.00 39 1007.2
20260504150704 17 202 6.4 16.1 0.00 0.00 0.00 42 1007.9
20260504150203 16 280 8.0 14.5 0.00 0.00 0.00 42 1008.0
20260504140704 15 330 8.0 20.9 0.00 0.00 0.00 46 1008.3
20260504130704 13 281 4.8 12.9 0.00 0.00 0.00 53 1008.6
20260504130203 12 318 3.2 11.3 0.00 0.00 0.00 55 1008.6
20260504120204 7 47 0.0 11.3 0.00 0.00 0.00 81 1009.1
20260504110703 4 347 0.0 0.0 0.00 0.00 0.00 86 1009.5
20260504110204 4 347 0.0 0.0 0.00 0.00 0.00 86 1009.5
20260504100204 4 32 0.0 0.0 0.00 0.00 0.00 84 1009.4
20260504081703 5 32 0.0 1.6 0.00 0.00 0.00 81 1009.4
20260504081204 5 0 0.0 0.0 0.00 0.00 0.00 81 1009.3
20260504080703 5 0 0.0 0.0 0.00 0.00 0.00 81 1009.4
20260504080204 5 0 0.0 0.0 0.00 0.00 0.00 80 1009.3
20260504070204 6 0 0.0 0.0 0.00 0.00 0.00 79 1009.3
20260504060203 6 0 0.0 0.0 0.00 0.00 0.00 78 1009.4
20260504050703 5 5 3.2 3.2 0.00 0.00 0.00 78 1009.7
20260504050203 5 14 0.0 0.0 0.00 0.00 0.00 78 1009.6
20260504045704 5 12 1.6 3.2 0.00 0.00 0.00 78 1009.6
20260504045203 5 11 0.0 1.6 0.00 0.00 0.00 78 1009.7
20260504044705 5 12 1.6 3.2 0.00 0.00 0.00 77 1009.7
20260504044204 5 8 3.2 3.2 0.00 0.00 0.00 77 1009.7
20260504043703 5 350 3.2 3.2 0.00 0.00 0.00 76 1009.6
20260504043204 5 7 3.2 3.2 0.00 0.00 0.00 76 1009.7
20260504042703 5 7 3.2 3.2 0.00 0.00 0.00 75 1009.6
20260504042204 5 4 3.2 3.2 0.00 0.00 0.00 75 1009.6
20260504041703 6 9 4.8 4.8 0.00 0.00 0.00 74 1009.6
20260504041204 6 6 3.2 4.8 0.00 0.00 0.00 74 1009.6
20260504040704 6 4 3.2 4.8 0.00 0.00 0.00 74 1009.6
20260504040204 6 7 3.2 3.2 0.00 0.00 0.00 73 1009.5
20260504035703 6 5 1.6 4.8 0.00 0.00 0.00 72 1009.5
20260504035203 6 12 3.2 3.2 0.00 0.00 0.00 72 1009.5
20260504034704 6 8 3.2 3.2 0.00 0.00 0.00 71 1009.5
20260504034203 6 14 3.2 3.2 0.00 0.00 0.00 70 1009.5
20260504033704 6 4 3.2 3.2 0.00 0.00 0.00 70 1009.4
20260504033204 7 10 1.6 3.2 0.00 0.00 0.00 70 1009.3
20260504032703 7 5 3.2 3.2 0.00 0.00 0.00 69 1009.2
20260504032204 7 0 0.0 3.2 0.00 0.00 0.00 68 1009.2
20260504031703 7 322 0.0 0.0 0.00 0.00 0.00 68 1009.2
20260504031204 7 322 0.0 0.0 0.00 0.00 0.00 68 1009.1
20260504030704 7 322 0.0 0.0 0.00 0.00 0.00 68 1009.1
20260504030204 7 322 0.0 0.0 0.00 0.00 0.00 68 1009.1
20260504025703 8 322 0.0 0.0 0.00 0.00 0.00 68 1009.0
20260504025203 8 322 0.0 0.0 0.00 0.00 0.00 68 1009.0
20260504024704 8 322 0.0 0.0 0.00 0.00 0.00 68 1009.0
20260504023704 8 322 0.0 0.0 0.00 0.00 0.00 66 1009.1
20260504023203 8 322 0.0 0.0 0.00 0.00 0.00 65 1009.0
20260504022703 8 322 0.0 0.0 0.00 0.00 0.00 64 1009.0
20260504022204 8 322 0.0 0.0 0.00 0.00 0.00 61 1009.0
20260504021203 8 322 0.0 1.6 0.00 0.00 0.00 60 1008.9
20260504020704 9 11 0.0 1.6 0.00 0.00 0.00 58 1008.8
20260504015203 9 5 1.6 3.2 0.00 0.00 0.00 58 1008.7
20260504014703 10 133 0.0 1.6 0.00 0.00 0.00 56 1008.6
20260504014204 10 337 0.0 3.2 0.00 0.00 0.00 54 1008.5
20260504013703 10 340 1.6 4.8 0.00 0.00 0.00 54 1008.5
20260504013204 10 23 1.6 9.7 0.00 0.00 0.00 52 1008.5
20260504012704 9 334 4.8 9.7 0.00 0.00 0.00 52 1008.4
20260504011704 9 355 3.2 8.0 0.00 0.00 0.00 54 1008.4
20260504010704 9 330 1.6 3.2 0.00 0.00 0.00 56 1008.2
20260504010203 9 353 9.7 22.5 0.00 0.00 0.00 55 1008.2
20260504005704 9 306 0.0 0.0 0.00 0.00 0.00 55 1008.1
20260504005204 10 320 1.6 3.2 0.00 0.00 0.00 54 1008.1
20260504004203 10 287 0.0 0.0 0.00 0.00 0.00 51 1007.9
20260504003703 10 287 0.0 0.0 0.00 0.00 0.00 51 1007.8
20260504003203 10 287 0.0 0.0 0.00 0.00 0.00 50 1007.7
20260504002704 10 287 0.0 0.0 0.00 0.00 0.00 50 1007.6
20260504002203 11 287 0.0 0.0 0.00 0.00 0.00 48 1007.5
20260504001704 11 287 0.0 0.0 0.00 0.00 0.00 48 1007.5
20260504001204 11 287 0.0 3.2 0.00 0.00 0.00 47 1007.4
20260504000204 11 354 1.6 8.0 0.00 0.00 0.00 43 1007.3
20260503235204 11 335 0.0 0.0 0.00 0.00 0.00 43 1007.2
20260503234704 11 335 0.0 1.6 0.00 0.00 0.00 41 1007.2
20260503233704 12 332 1.6 4.8 0.00 0.00 0.00 38 1007.1
20260503233203 12 19 3.2 14.5 0.00 0.00 0.00 37 1007.1
20260503232704 12 339 3.2 8.0 0.00 0.00 0.00 37 1007.1
20260503231704 12 24 3.2 8.0 0.00 0.00 0.00 40 1007.0
20260503230703 12 26 4.8 9.7 0.00 0.00 0.00 38 1007.0
20260503230204 12 6 3.2 8.0 0.00 0.00 0.00 38 1007.0
20260503225704 12 342 4.8 11.3 0.00 0.00 0.00 38 1007.0
20260503225204 12 316 3.2 11.3 0.00 0.00 0.00 38 1006.9
20260503224703 12 15 9.7 14.5 0.00 0.00 0.00 36 1006.8
20260503224203 13 356 8.0 16.1 0.00 0.00 0.00 36 1006.8
20260503223704 13 7 4.8 11.3 0.00 0.00 0.00 36 1006.8
20260503223204 13 0 4.8 14.5 0.00 0.00 0.00 36 1006.8
20260503222203 13 39 4.8 14.5 0.00 0.00 0.00 37 1006.9
20260503221704 13 18 4.8 11.3 0.00 0.00 0.00 38 1006.9
20260503221204 13 295 6.4 14.5 0.00 0.00 0.00 37 1006.9
20260503220704 13 32 0.0 4.8 0.00 0.00 0.00 40 1006.9
20260503220204 13 36 4.8 11.3 0.00 0.00 0.00 37 1006.8
20260503215704 13 49 1.6 12.9 0.00 0.00 0.00 38 1006.9
20260503215204 13 333 8.0 14.5 0.00 0.00 0.00 37 1006.9
20260503214704 13 15 8.0 20.9 0.00 0.00 0.00 38 1006.9
20260503214203 12 17 8.0 19.3 0.00 0.00 0.00 38 1007.0
20260503213205 13 12 14.5 32.2 0.00 0.00 0.00 37 1006.8
20260503212703 13 350 6.4 19.3 0.00 0.00 0.00 39 1006.9
20260503212204 12 350 8.0 24.1 0.00 0.00 0.00 39 1006.9
20260503211704 12 12 6.4 16.1 0.00 0.00 0.00 39 1006.9
20260503211204 12 14 8.0 22.5 0.00 0.00 0.00 41 1006.7
20260503210703 13 16 9.7 24.1 0.00 0.00 0.00 39 1006.9
20260503210203 13 14 9.7 20.9 0.00 0.00 0.00 39 1006.7
20260503205704 13 343 11.3 20.9 0.00 0.00 0.00 39 1006.8
20260503205203 13 18 11.3 22.5 0.00 0.00 0.00 38 1006.7
20260503204704 13 1 14.5 32.2 0.00 0.00 0.00 36 1006.7
20260503204203 14 16 8.0 24.1 0.00 0.00 0.00 38 1006.7
20260503203203 15 333 8.0 22.5 0.00 0.00 0.00 37 1006.9
20260503202704 15 1 9.7 24.1 0.00 0.00 0.00 35 1006.8
20260503202203 15 357 6.4 22.5 0.00 0.00 0.00 35 1006.7
20260503201704 15 342 4.8 12.9 0.00 0.00 0.00 39 1006.6
20260503201204 13 322 3.2 29.0 0.00 0.00 0.00 40 1006.7
20260503200703 13 12 9.7 24.1 0.00 0.00 0.00 39 1006.7
20260503200204 12 335 9.7 19.3 0.00 0.00 0.00 40 1006.7
20260503195204 12 331 11.3 22.5 0.00 0.00 0.00 41 1006.8
20260503194703 12 2 11.3 25.7 0.00 0.00 0.00 40 1006.9
20260503194204 12 2 11.3 27.4 0.00 0.00 0.00 40 1006.9
20260503193704 12 26 14.5 27.4 0.00 0.00 0.00 39 1006.7
20260503193203 12 7 8.0 22.5 0.00 0.00 0.00 39 1006.8
20260503192704 12 23 4.8 14.5 0.00 0.00 0.00 41 1006.8
20260503192203 12 6 11.3 22.5 0.00 0.00 0.00 40 1006.8
20260503191704 11 342 6.4 25.7 0.00 0.00 0.00 42 1006.8
20260503191203 11 10 11.3 24.1 0.00 0.00 0.00 40 1006.8
20260503190704 12 23 4.8 19.3 0.00 0.00 0.00 43 1006.8
20260503190203 12 10 4.8 25.7 0.00 0.00 0.00 43 1006.8
20260503185704 12 356 6.4 14.5 0.00 0.00 0.00 43 1006.8
20260503185204 11 2 6.4 27.4 0.00 0.00 0.00 42 1006.8
20260503184704 11 14 8.0 20.9 0.00 0.00 0.00 43 1006.8
20260503184204 11 327 9.7 20.9 0.00 0.00 0.00 41 1006.8
20260503183704 12 328 8.0 22.5 0.00 0.00 0.00 43 1006.9
20260503183204 12 3 8.0 20.9 0.00 0.00 0.00 42 1006.7
20260503182704 12 14 9.7 19.3 0.00 0.00 0.00 42 1006.7
20260503182204 12 31 6.4 16.1 0.00 0.00 0.00 42 1006.8
20260503181704 11 355 8.0 14.5 0.00 0.00 0.00 43 1006.8
20260503180704 11 334 11.3 27.4 0.00 0.00 0.00 43 1006.7
20260503175203 11 321 8.0 16.1 0.00 0.00 0.00 45 1007.0
20260503174704 11 326 8.0 16.1 0.00 0.00 0.00 47 1006.9
20260503174204 11 5 9.7 29.0 0.00 0.00 0.00 47 1007.0
20260503173703 11 29 11.3 20.9 0.00 0.00 0.00 45 1006.8
20260503173204 11 3 4.8 12.9 0.00 0.00 0.00 47 1007.0
20260503172703 11 6 9.7 32.2 0.00 0.00 0.00 46 1007.0
20260503171703 11 316 8.0 20.9 0.00 0.00 0.00 47 1007.0
20260503171203 11 327 11.3 16.1 0.00 0.00 0.00 46 1006.9
20260503170704 11 13 12.9 27.4 0.00 0.00 0.00 44 1006.8
20260503170204 12 356 9.7 24.1 0.00 0.00 0.00 42 1006.9